DW7287 Weather Reports


Display with metric or nautical units.
time (UTC)temp
F
wind
direction
speed
MPH
gust
MPH
rain 1hr
in
rain 24hr
in
rain mn
in
humidity
%
barometer
mb
20260904074606 73 0 0.0 0.0 0.00 0.00 0.00 95 1016.0
20260904073103 73 0 0.0 0.0 0.00 0.00 0.00 95 1016.1
20260904071602 73 0 0.0 0.0 0.00 0.00 0.00 95 1016.0
20260904070104 73 0 0.0 0.0 0.00 0.00 0.00 94 1016.2
20260904064607 74 0 0.0 0.0 0.00 0.00 0.00 94 1016.2
20260904063104 74 0 0.0 0.0 0.00 0.00 0.00 94 1016.3
20260904061601 74 0 0.0 0.0 0.00 0.00 0.00 94 1016.5
20260904060106 74 0 0.0 0.0 0.00 0.00 0.00 94 1016.7
20260904054600 74 0 0.0 0.0 0.00 0.00 0.00 94 1016.7
20260904053106 74 0 0.0 0.0 0.00 0.00 0.00 95 1016.7
20260904051604 75 0 0.0 0.0 0.00 0.00 0.00 94 1016.8
20260904050103 75 0 0.0 0.0 0.00 0.00 0.00 94 1016.7
20260904044612 75 0 0.0 0.0 0.00 0.00 0.00 93 1016.7
20260904043103 75 0 0.0 0.0 0.00 0.00 0.00 94 1016.7
20260904041602 75 0 0.0 0.0 0.00 0.00 0.00 93 1016.7
20260904040106 76 0 0.0 0.0 0.00 0.00 0.00 93 1016.6
20260904034605 76 0 0.0 0.0 0.00 0.00 0.00 92 1016.5
20260904033107 76 0 0.0 0.0 0.00 0.00 0.00 92 1016.5
20260904031601 76 0 0.0 0.0 0.00 0.00 0.00 92 1016.6
20260904024610 77 0 0.0 0.0 0.00 0.00 0.00 91 1016.7
20260904023104 77 0 0.0 0.0 0.00 0.00 0.00 91 1016.8
20260904021602 77 0 0.0 0.0 0.00 0.00 0.00 90 1016.8
20260904020100 78 0 0.0 0.0 0.00 0.00 0.00 89 1016.8
20260904014602 78 0 0.0 0.0 0.00 0.00 0.00 88 1016.7
20260904013102 79 0 0.0 0.0 0.00 0.00 0.00 88 1016.7
20260904011613 78 0 0.0 0.0 0.00 0.00 0.00 86 1016.4
20260904010110 80 0 0.0 0.0 0.00 0.00 0.00 84 1016.5
20260904004558 80 0 0.0 0.0 0.00 0.00 0.00 83 1016.4
20260904003105 81 0 0.0 0.0 0.00 0.00 0.00 83 1016.3
20260904001604 81 0 0.0 1.0 0.00 0.00 0.00 79 1016.1
20260903234605 84 0 0.0 0.0 0.00 0.00 0.00 76 1016.3
20260903233103 85 0 0.0 0.0 0.00 0.00 0.00 76 1016.2
20260903231606 86 0 0.0 0.0 0.00 0.00 0.00 73 1016.2
20260903224605 88 0 0.0 1.0 0.00 0.00 0.00 67 1016.0
20260903223104 89 0 0.0 2.0 0.00 0.00 0.00 64 1015.8
20260903221605 89 318 0.0 2.0 0.00 0.00 0.00 64 1015.5
20260903220124 89 0 0.0 2.0 0.00 0.00 0.00 63 1015.1
20260903214605 90 0 0.0 3.0 0.00 0.00 0.00 60 1015.2
20260903213106 90 254 0.0 3.0 0.00 0.00 0.00 62 1015.2
20260903211603 91 0 0.0 3.0 0.00 0.00 0.00 61 1015.5
20260903210107 91 0 0.0 3.0 0.00 0.00 0.00 60 1015.5
20260903204559 90 288 0.0 4.0 0.00 0.00 0.00 59 1015.9
20260903203133 91 0 0.0 2.0 0.00 0.00 0.00 61 1016.1
20260903201600 91 0 0.0 4.0 0.00 0.00 0.00 62 1016.2
20260903194603 92 0 0.0 5.0 0.00 0.00 0.00 59 1016.5
20260903193102 92 0 0.0 0.0 0.00 0.00 0.00 59 1016.6
20260903191605 91 0 0.0 0.0 0.00 0.00 0.00 58 1016.7
20260903184600 91 0 0.0 0.0 0.00 0.00 0.00 62 1017.3
20260903183059 91 0 0.0 0.0 0.00 0.00 0.00 61 1017.5
20260903181606 93 0 0.0 0.0 0.00 0.00 0.00 56 1017.6
20260903180105 94 0 0.0 0.0 0.00 0.00 0.00 56 1017.6
20260903174602 93 0 0.0 0.0 0.00 0.00 0.00 58 1017.7
20260903173059 93 0 0.0 0.0 0.00 0.00 0.00 58 1017.9
20260903171615 93 0 0.0 0.0 0.00 0.00 0.00 57 1018.0
20260903170103 93 0 0.0 0.0 0.00 0.00 0.00 56 1018.1
20260903164637 93 0 0.0 0.0 0.00 0.00 0.00 57 1018.2
20260903163103 92 0 0.0 0.0 0.00 0.00 0.00 59 1018.4
20260903161602 92 0 0.0 0.0 0.00 0.00 0.00 61 1018.4
20260903160100 92 0 0.0 0.0 0.00 0.00 0.00 61 1018.6
20260903154602 91 0 0.0 0.0 0.00 0.00 0.00 62 1018.6
20260903153058 91 0 0.0 0.0 0.00 0.00 0.00 62 1018.6
20260903151604 90 0 0.0 0.0 0.00 0.00 0.00 65 1018.7
20260903150107 89 0 0.0 0.0 0.00 0.00 0.00 66 1018.6
20260903144611 89 0 0.0 0.0 0.00 0.00 0.00 66 1018.6
20260903143059 88 0 0.0 0.0 0.00 0.00 0.00 70 1018.6
20260903141606 87 0 0.0 0.0 0.00 0.00 0.00 72 1018.6
20260903140107 85 0 0.0 0.0 0.00 0.00 0.00 75 1018.5
20260903134606 83 0 0.0 0.0 0.00 0.00 0.00 79 1018.5
20260903133104 81 0 0.0 0.0 0.00 0.00 0.00 84 1018.6
20260903131604 79 0 0.0 0.0 0.00 0.00 0.00 90 1018.7
20260903130107 76 0 0.0 0.0 0.00 0.00 0.00 96 1018.8
20260903124610 74 0 0.0 0.0 0.00 0.00 0.00 97 1018.9
20260903123104 73 0 0.0 0.0 0.00 0.00 0.00 97 1019.0
20260903121612 71 0 0.0 0.0 0.00 0.00 0.00 97 1019.0
20260903120106 70 0 0.0 0.0 0.00 0.00 0.00 96 1019.0
20260903114601 69 0 0.0 0.0 0.00 0.00 0.00 96 1018.9
20260903113139 69 0 0.0 0.0 0.00 0.00 0.00 96 1018.8
20260903111601 69 0 0.0 0.0 0.00 0.00 0.00 96 1018.7
20260903110109 69 0 0.0 0.0 0.00 0.00 0.00 96 1018.6
20260903104609 69 0 0.0 0.0 0.00 0.00 0.00 96 1018.4
20260903103101 69 0 0.0 0.0 0.00 0.00 0.00 96 1018.4
20260903101615 70 0 0.0 0.0 0.00 0.00 0.00 96 1018.3
20260903094606 70 0 0.0 0.0 0.00 0.00 0.00 96 1018.1
20260903093107 70 0 0.0 0.0 0.00 0.00 0.00 96 1018.0
20260903091603 70 0 0.0 0.0 0.00 0.00 0.00 96 1018.0
20260903084610 70 0 0.0 0.0 0.00 0.00 0.00 95 1018.1
20260903083108 70 0 0.0 0.0 0.00 0.00 0.00 95 1017.9
20260903081605 71 0 0.0 0.0 0.00 0.00 0.00 95 1017.9